GW4883 Weather Reports


time (UTC)temp
C
wind
direction
speed
KPH
gust
KPH
rain 1hr
cm
rain 24hr
cm
rain mn
cm
humidity
%
barometer
mb
20260507202507 23 175 1.6 11.3 0.00 0.00 0.00 49 1016.8
20260507202008 22 136 1.6 11.3 0.00 0.00 0.00 50 1016.7
20260507201525 22 117 1.6 8.0 0.00 0.00 0.00 48 1016.7
20260507201009 22 101 3.2 8.0 0.00 0.00 0.00 48 1016.5
20260507200511 22 84 1.6 12.9 0.00 0.00 0.00 49 1016.4
20260507200027 21 66 4.8 14.5 0.00 0.00 0.00 48 1016.6
20260507195512 22 302 1.6 14.5 0.00 0.00 0.00 46 1017.0
20260507195004 23 103 1.6 8.0 0.00 0.00 0.00 47 1017.0
20260507194510 22 88 3.2 11.3 0.00 0.00 0.00 49 1017.0
20260507194003 22 86 3.2 11.3 0.00 0.00 0.00 50 1017.1
20260507193503 22 59 4.8 14.5 0.00 0.00 0.00 50 1017.1
20260507193014 21 12 1.6 14.5 0.00 0.00 0.00 47 1017.2
20260507192505 22 5 1.6 6.4 0.00 0.00 0.00 50 1017.2
20260507192004 21 87 3.2 9.7 0.00 0.00 0.00 48 1017.4
20260507191512 21 110 1.6 9.7 0.00 0.00 0.00 50 1017.5
20260507191004 21 285 1.6 9.7 0.00 0.00 0.00 51 1017.8
20260507190501 21 70 4.8 8.0 0.00 0.00 0.00 47 1017.9
20260507190005 21 71 3.2 8.0 0.00 0.00 0.00 48 1017.9
20260507185503 21 78 1.6 8.0 0.00 0.00 0.00 51 1018.0
20260507185006 21 36 3.2 8.0 0.00 0.00 0.00 50 1017.9
20260507184510 21 16 1.6 17.7 0.00 0.00 0.00 49 1018.0
20260507184004 21 18 4.8 17.7 0.00 0.00 0.00 49 1018.0
20260507183503 21 34 8.0 16.1 0.00 0.00 0.00 49 1018.0
20260507183012 20 13 4.8 16.1 0.00 0.00 0.00 49 1017.9
20260507182503 21 341 3.2 14.5 0.00 0.00 0.00 50 1017.9
20260507182004 21 340 6.4 14.5 0.00 0.00 0.00 49 1017.8
20260507181508 21 352 6.4 14.5 0.00 0.00 0.00 49 1017.9
20260507181005 20 34 6.4 14.5 0.00 0.00 0.00 50 1017.9
20260507180502 20 240 4.8 16.1 0.00 0.00 0.00 50 1017.9
20260507180009 20 42 6.4 16.1 0.00 0.00 0.00 49 1017.9
20260507175500 20 18 6.4 17.7 0.00 0.00 0.00 49 1018.0
20260507175004 20 80 6.4 17.7 0.00 0.00 0.00 48 1018.0
20260507174508 20 49 6.4 16.1 0.00 0.00 0.00 48 1018.0
20260507174003 20 56 9.7 16.1 0.00 0.00 0.00 49 1018.2
20260507173503 20 348 8.0 14.5 0.00 0.00 0.00 48 1018.2
20260507173008 20 53 6.4 16.1 0.00 0.00 0.00 49 1018.3
20260507172504 20 60 4.8 16.1 0.00 0.00 0.00 50 1018.5
20260507172003 20 325 8.0 17.7 0.00 0.00 0.00 50 1018.6
20260507171520 20 285 6.4 17.7 0.00 0.00 0.00 51 1018.8
20260507171004 19 90 6.4 16.1 0.00 0.00 0.00 53 1018.9
20260507170503 20 79 4.8 12.9 0.00 0.00 0.00 52 1019.1
20260507170011 19 54 6.4 17.7 0.00 0.00 0.00 53 1019.2
20260507165505 18 360 6.4 17.7 0.00 0.00 0.00 52 1019.4
20260507165006 18 342 6.4 12.9 0.00 0.00 0.00 54 1019.5
20260507164513 18 10 6.4 12.9 0.00 0.00 0.00 54 1019.6
20260507164004 18 352 6.4 11.3 0.00 0.00 0.00 55 1019.6
20260507163504 18 352 4.8 14.5 0.00 0.00 0.00 54 1019.8
20260507163013 18 5 0.0 14.5 0.00 0.00 0.00 58 1019.8
20260507162507 18 345 4.8 12.9 0.00 0.00 0.00 56 1019.9
20260507162004 18 57 3.2 9.7 0.00 0.00 0.00 56 1019.7
20260507161509 18 36 4.8 8.0 0.00 0.00 0.00 57 1019.7
20260507161004 18 51 3.2 9.7 0.00 0.00 0.00 58 1019.7
20260507160504 18 65 3.2 8.0 0.00 0.00 0.00 58 1019.8
20260507160012 18 68 3.2 12.9 0.00 0.00 0.00 58 1019.8
20260507155504 18 17 3.2 12.9 0.00 0.00 0.00 59 1019.8
20260507155004 18 5 4.8 11.3 0.00 0.00 0.00 59 1019.7
20260507154513 18 33 4.8 12.9 0.00 0.00 0.00 60 1019.7
20260507154009 17 128 1.6 12.9 0.00 0.00 0.00 61 1019.7
20260507153504 17 28 3.2 14.5 0.00 0.00 0.00 61 1019.7
20260507153008 17 46 6.4 14.5 0.00 0.00 0.00 59 1019.7
20260507152504 17 342 3.2 12.9 0.00 0.00 0.00 60 1019.8
20260507152003 17 32 6.4 9.7 0.00 0.00 0.00 60 1019.9
20260507151515 17 335 4.8 12.9 0.00 0.00 0.00 60 1019.9
20260507151003 17 329 6.4 14.5 0.00 0.00 0.00 61 1020.0
20260507150503 17 74 1.6 14.5 0.00 0.00 0.00 62 1020.0
20260507150012 17 21 4.8 14.5 0.00 0.00 0.00 61 1020.0
20260507145507 17 351 4.8 12.9 0.00 0.00 0.00 62 1020.0
20260507145004 17 19 4.8 16.1 0.00 0.00 0.00 61 1020.0
20260507144516 17 78 4.8 16.1 0.00 0.03 0.00 61 1020.1
20260507144005 17 5 4.8 9.7 0.00 0.03 0.00 63 1020.1
20260507143502 17 39 3.2 6.4 0.00 0.03 0.00 64 1020.2
20260507143020 17 47 1.6 8.0 0.00 0.03 0.00 64 1020.3
20260507142505 16 59 3.2 9.7 0.00 0.03 0.00 64 1020.2
20260507142006 16 360 3.2 9.7 0.00 0.03 0.00 65 1020.3
20260507141511 16 51 3.2 8.0 0.00 0.03 0.00 65 1020.3
20260507141004 16 28 3.2 8.0 0.00 0.03 0.00 66 1020.4
20260507140508 16 352 1.6 8.0 0.00 0.03 0.00 68 1020.3
20260507140015 15 32 1.6 8.0 0.00 0.03 0.00 69 1020.2
20260507135503 15 17 3.2 8.0 0.00 0.03 0.00 71 1020.2
20260507135010 15 12 3.2 8.0 0.00 0.03 0.00 71 1020.3
20260507134519 15 74 1.6 8.0 0.00 0.03 0.00 73 1020.4
20260507134004 15 348 3.2 6.4 0.00 0.03 0.00 73 1020.4
20260507133503 14 351 1.6 4.8 0.00 0.03 0.00 74 1020.5
20260507133017 14 342 1.6 4.8 0.00 0.03 0.00 75 1020.6
20260507132506 13 48 1.6 4.8 0.00 0.03 0.00 77 1020.8
20260507132009 13 59 0.0 3.2 0.00 0.03 0.00 79 1020.8
20260507131527 13 360 1.6 3.2 0.00 0.03 0.00 80 1020.8
20260507131004 12 338 0.0 3.2 0.00 0.03 0.00 83 1020.7
20260507130504 12 36 0.0 0.0 0.00 0.03 0.00 85 1020.6
20260507130019 12 98 0.0 0.0 0.00 0.03 0.00 86 1020.5
20260507125507 11 98 0.0 0.0 0.00 0.03 0.00 88 1020.5
20260507125004 11 98 0.0 0.0 0.00 0.03 0.00 87 1020.4
20260507124519 11 98 0.0 0.0 0.00 0.03 0.00 87 1020.4
20260507124008 11 98 0.0 0.0 0.00 0.03 0.00 87 1020.4
20260507123505 10 98 0.0 0.0 0.00 0.03 0.00 87 1020.3
20260507123020 10 98 0.0 0.0 0.00 0.03 0.00 86 1020.2
20260507122504 10 98 0.0 0.0 0.00 0.03 0.00 86 1020.3
20260507122007 10 98 0.0 0.0 0.00 0.03 0.00 86 1020.3
20260507121519 10 98 0.0 0.0 0.00 0.03 0.00 85 1020.3
20260507121008 10 98 0.0 0.0 0.00 0.03 0.00 85 1020.3
20260507120508 10 98 0.0 0.0 0.00 0.03 0.00 85 1020.3
20260507120035 10 98 0.0 0.0 0.00 0.03 0.00 85 1020.4
20260507115503 10 360 0.0 0.0 0.00 0.03 0.00 85 1020.4
20260507115006 10 360 0.0 0.0 0.00 0.03 0.00 85 1020.1
20260507114518 10 360 0.0 0.0 0.00 0.03 0.00 85 1020.4
20260507114009 10 360 0.0 0.0 0.00 0.03 0.00 85 1020.5
20260507113506 10 360 0.0 3.2 0.00 0.03 0.00 85 1020.3
20260507113035 10 360 0.0 3.2 0.00 0.03 0.00 85 1020.3
20260507112512 10 10 0.0 3.2 0.00 0.03 0.00 85 1020.0
20260507112015 10 323 0.0 4.8 0.00 0.03 0.00 85 1020.0
20260507111520 10 360 0.0 6.4 0.00 0.03 0.00 86 1020.0
20260507111006 10 351 1.6 6.4 0.00 0.03 0.00 86 1019.9
20260507110505 10 336 1.6 6.4 0.00 0.03 0.00 86 1019.8
20260507110022 10 14 3.2 6.4 0.00 0.03 0.00 86 1019.8
20260507105505 10 339 3.2 4.8 0.00 0.03 0.00 87 1019.8
20260507105007 10 352 3.2 4.8 0.00 0.03 0.00 87 1019.7
20260507104516 10 360 0.0 4.8 0.00 0.03 0.00 87 1019.8
20260507104005 10 335 0.0 4.8 0.00 0.03 0.00 86 1019.7
20260507103504 10 322 1.6 3.2 0.00 0.03 0.00 86 1019.7
20260507103020 10 331 0.0 3.2 0.00 0.03 0.00 86 1019.7
20260507102500 10 321 0.0 0.0 0.00 0.03 0.00 86 1019.7
20260507102000 10 337 0.0 0.0 0.00 0.03 0.00 86 1019.5
20260507101507 10 337 0.0 0.0 0.00 0.03 0.00 85 1019.4
20260507101004 10 337 0.0 0.0 0.00 0.03 0.00 85 1019.5
20260507100504 10 337 0.0 0.0 0.00 0.03 0.00 85 1019.4
20260507100010 10 337 0.0 0.0 0.00 0.03 0.00 85 1019.4
20260507095505 10 337 0.0 0.0 0.00 0.03 0.00 85 1019.2
20260507095005 10 337 0.0 3.2 0.00 0.03 0.00 84 1018.9
20260507094513 10 337 0.0 3.2 0.00 0.03 0.00 84 1018.8
20260507094003 11 346 0.0 3.2 0.00 0.03 0.00 84 1018.8
20260507093508 11 346 0.0 3.2 0.00 0.03 0.00 84 1018.8
20260507093019 11 304 0.0 3.2 0.00 0.03 0.00 83 1018.8
20260507092507 11 312 0.0 4.8 0.00 0.03 0.00 83 1018.7
20260507092013 11 324 0.0 4.8 0.00 0.03 0.00 83 1018.6
20260507091503 11 352 0.0 6.4 0.00 0.03 0.00 83 1018.5
20260507091003 11 352 3.2 6.4 0.00 0.03 0.00 83 1018.4
20260507090503 11 306 0.0 3.2 0.00 0.03 0.00 82 1018.5
20260507090004 11 5 0.0 6.4 0.00 0.03 0.00 82 1018.4
20260507085503 11 11 1.6 6.4 0.00 0.03 0.00 82 1018.2
20260507085003 11 346 1.6 8.0 0.00 0.03 0.00 82 1018.1
20260507084512 11 360 1.6 8.0 0.00 0.03 0.00 82 1018.0
20260507084003 11 351 1.6 9.7 0.00 0.03 0.00 82 1018.0
20260507083503 11 5 4.8 9.7 0.00 0.03 0.00 82 1017.9
20260507083018 11 5 3.2 8.0 0.00 0.03 0.00 81 1017.9
20260507082508 11 15 3.2 9.7 0.00 0.03 0.00 81 1017.9
20260507082009 11 60 3.2 12.9 0.00 0.03 0.00 81 1017.8
20260507081530 11 346 3.2 11.3 0.00 0.03 0.00 81 1017.7
20260507081007 11 360 3.2 12.9 0.00 0.03 0.00 81 1017.7
20260507080508 11 335 4.8 12.9 0.00 0.03 0.00 81 1017.8
20260507080005 11 53 4.8 8.0 0.00 0.03 0.00 81 1017.9
20260507075501 11 5 4.8 12.9 0.00 0.03 0.00 81 1018.0
20260507075001 12 360 3.2 12.9 0.00 0.03 0.00 81 1017.9
20260507074513 12 329 4.8 12.9 0.00 0.03 0.00 81 1017.7
20260507074005 12 10 4.8 12.9 0.00 0.03 0.00 80 1017.5
20260507073504 12 5 6.4 12.9 0.00 0.03 0.00 80 1017.6
20260507073015 12 20 4.8 12.9 0.00 0.03 0.00 80 1017.7
20260507072504 12 274 4.8 12.9 0.00 0.03 0.00 80 1017.7
20260507072003 12 5 4.8 8.0 0.00 0.03 0.00 80 1017.8
20260507071524 12 17 3.2 8.0 0.00 0.03 0.00 80 1017.8
20260507071007 12 352 4.8 12.9 0.00 0.03 0.00 80 1017.8
20260507070508 12 336 4.8 12.9 0.00 0.03 0.00 80 1017.7
20260507070022 12 336 4.8 8.0 0.00 0.03 0.00 80 1017.6
20260507065513 12 341 3.2 9.7 0.00 0.03 0.00 80 1017.6
20260507065002 12 19 3.2 9.7 0.00 0.03 0.00 80 1017.5
20260507064505 12 360 3.2 9.7 0.00 0.03 0.00 81 1017.5
20260507064006 12 9 4.8 9.7 0.00 0.03 0.00 81 1017.3
20260507063504 12 5 4.8 12.9 0.00 0.03 0.00 80 1017.2
20260507063010 12 352 4.8 12.9 0.00 0.03 0.00 80 1017.2
20260507062506 12 13 4.8 9.7 0.00 0.03 0.00 80 1017.1
20260507062007 12 348 3.2 9.7 0.00 0.03 0.00 80 1017.0
20260507061529 12 352 3.2 9.7 0.00 0.03 0.00 80 1017.1
20260507061009 12 360 3.2 8.0 0.00 0.03 0.00 80 1017.0
20260507060507 12 350 3.2 8.0 0.00 0.03 0.00 80 1017.0
20260507060020 12 24 4.8 8.0 0.00 0.03 0.00 80 1016.9
20260507055508 12 340 3.2 6.4 0.00 0.03 0.00 79 1016.8
20260507055012 12 28 0.0 8.0 0.00 0.03 0.00 79 1016.8
20260507054525 12 59 1.6 8.0 0.00 0.03 0.00 79 1016.9
20260507054008 12 38 1.6 8.0 0.00 0.03 0.00 79 1016.9
20260507053504 12 44 3.2 8.0 0.00 0.03 0.00 79 1016.9
20260507053010 12 56 3.2 8.0 0.00 0.03 0.00 79 1017.0
20260507052502 12 360 1.6 8.0 0.00 0.03 0.00 79 1017.0
20260507052006 12 51 3.2 8.0 0.00 0.03 0.00 79 1016.9
20260507051515 12 352 1.6 9.7 0.00 0.03 0.00 79 1017.2
20260507051006 13 22 1.6 14.5 0.00 0.03 0.00 78 1017.1
20260507050508 13 51 3.2 14.5 0.00 0.03 0.00 78 1017.0
20260507050021 13 43 3.2 8.0 0.00 0.03 0.00 78 1017.0
20260507045506 13 343 3.2 9.7 0.00 0.03 0.03 78 1016.9
20260507045009 13 95 3.2 9.7 0.00 0.03 0.03 78 1017.0
20260507044524 13 89 3.2 12.9 0.00 0.03 0.03 77 1016.8
20260507044008 13 26 1.6 12.9 0.00 0.03 0.03 77 1016.8
20260507043511 13 19 4.8 11.3 0.00 0.03 0.03 77 1016.8
20260507043031 13 45 3.2 11.3 0.00 0.03 0.03 77 1016.8
20260507042503 13 77 3.2 14.5 0.00 0.03 0.03 77 1016.7
20260507042004 13 338 1.6 14.5 0.00 0.03 0.03 77 1016.8
20260507041511 13 46 3.2 11.3 0.00 0.03 0.03 77 1017.0
20260507041005 13 24 3.2 11.3 0.00 0.03 0.03 76 1017.0
20260507040505 13 5 3.2 12.9 0.00 0.03 0.03 76 1017.1
20260507040017 13 76 0.0 12.9 0.00 0.03 0.03 76 1017.1
20260507035503 13 20 3.2 12.9 0.00 0.03 0.03 76 1017.1
20260507035010 13 15 4.8 14.5 0.00 0.03 0.03 76 1017.1
20260507034532 13 5 4.8 14.5 0.00 0.03 0.03 76 1017.1
20260507034009 13 30 4.8 12.9 0.00 0.03 0.03 76 1017.1
20260507033505 13 71 4.8 12.9 0.00 0.03 0.03 76 1017.1
20260507033028 14 36 3.2 12.9 0.00 0.03 0.03 76 1017.1
20260507032511 14 306 3.2 16.1 0.00 0.03 0.03 75 1017.1
20260507032010 14 23 4.8 16.1 0.00 0.03 0.03 75 1017.1
20260507031510 14 9 6.4 19.3 0.00 0.03 0.03 75 1017.1
20260507031007 14 352 6.4 19.3 0.00 0.03 0.03 75 1017.0
20260507030505 14 22 9.7 16.1 0.00 0.03 0.03 74 1017.0
20260507030014 14 360 4.8 14.5 0.00 0.03 0.03 74 1016.9
20260507025503 15 352 6.4 14.5 0.00 0.03 0.03 74 1016.9
20260507025007 15 74 4.8 14.5 0.00 0.03 0.03 73 1016.9
20260507024520 15 49 6.4 11.3 0.00 0.03 0.03 73 1016.8
20260507024009 15 352 3.2 11.3 0.00 0.03 0.03 73 1016.8
20260507023509 15 13 4.8 12.9 0.00 0.03 0.03 73 1016.5
20260507023025 15 5 4.8 12.9 0.00 0.03 0.03 73 1016.5
20260507022503 15 319 6.4 12.9 0.00 0.03 0.03 72 1016.4
20260507022004 15 360 6.4 16.1 0.00 0.03 0.03 72 1016.3
20260507021507 15 11 6.4 16.1 0.00 0.03 0.03 72 1016.3
20260507021007 15 352 4.8 16.1 0.00 0.03 0.03 71 1016.3
20260507020505 15 5 4.8 16.1 0.00 0.03 0.03 71 1016.1
20260507020010 16 30 6.4 16.1 0.00 0.03 0.03 71 1016.0
20260507015506 16 24 4.8 16.1 0.00 0.03 0.03 71 1015.9
20260507015006 16 5 6.4 16.1 0.00 0.03 0.03 70 1015.9
20260507014520 16 11 8.0 14.5 0.00 0.03 0.03 71 1015.8
20260507014007 16 16 3.2 12.9 0.00 0.03 0.03 70 1015.7
20260507013503 16 34 3.2 12.9 0.00 0.03 0.03 70 1015.6
20260507013020 16 346 3.2 12.9 0.00 0.03 0.03 69 1015.5
20260507012507 16 19 4.8 12.9 0.00 0.03 0.03 68 1015.3
20260507012007 17 336 4.8 12.9 0.00 0.03 0.03 68 1015.2
20260507011506 17 337 6.4 14.5 0.00 0.03 0.03 68 1015.1
20260507011005 17 329 4.8 14.5 0.00 0.03 0.03 68 1015.0
20260507010503 17 15 4.8 14.5 0.00 0.03 0.03 67 1014.9
20260507010024 17 340 4.8 14.5 0.00 0.03 0.03 67 1014.8
20260507005507 17 46 3.2 12.9 0.00 0.03 0.03 66 1014.8
20260507005004 17 5 4.8 11.3 0.00 0.03 0.03 66 1014.7
20260507004515 18 12 1.6 14.5 0.00 0.03 0.03 66 1014.7
20260507004007 18 15 3.2 14.5 0.00 0.03 0.03 66 1014.6
20260507003505 18 21 4.8 9.7 0.00 0.03 0.03 65 1014.4
20260507003020 18 5 1.6 8.0 0.00 0.03 0.03 65 1014.4
20260507002508 18 54 3.2 6.4 0.00 0.03 0.03 65 1014.4
20260507002012 18 10 1.6 9.7 0.00 0.03 0.03 65 1014.4
20260507001530 18 25 4.8 9.7 0.00 0.03 0.03 64 1014.2
20260507001007 18 61 3.2 11.3 0.00 0.03 0.03 64 1014.1
20260507000505 19 20 3.2 11.3 0.00 0.03 0.03 63 1014.2
20260507000008 19 27 3.2 8.0 0.00 0.03 0.03 63 1014.2
20260506235504 19 75 3.2 8.0 0.00 0.03 0.03 64 1014.1
20260506235004 19 327 4.8 11.3 0.00 0.03 0.03 64 1014.0
20260506234522 19 38 3.2 11.3 0.00 0.03 0.03 63 1014.1
20260506234010 19 22 3.2 9.7 0.00 0.03 0.03 63 1013.9
20260506233504 19 18 4.8 9.7 0.00 0.03 0.03 63 1013.9
20260506233017 19 352 3.2 12.9 0.00 0.03 0.03 63 1013.8
20260506232507 19 340 3.2 12.9 0.00 0.03 0.03 64 1013.7
20260506232008 19 12 6.4 12.9 0.00 0.03 0.03 62 1013.7
20260506231522 19 5 6.4 11.3 0.00 0.03 0.03 63 1013.8
20260506231008 19 331 3.2 12.9 0.00 0.03 0.03 65 1013.7
20260506230509 19 49 6.4 12.9 0.00 0.03 0.03 64 1013.7
20260506230026 19 352 6.4 11.3 0.00 0.03 0.03 64 1013.6
20260506225504 19 5 1.6 8.0 0.00 0.03 0.03 64 1013.5
20260506225004 19 93 3.2 17.7 0.00 0.03 0.03 64 1013.6
20260506224522 19 14 4.8 17.7 0.00 0.03 0.03 64 1013.5
20260506224004 19 321 3.2 9.7 0.00 0.03 0.03 64 1013.4
20260506223507 19 348 4.8 17.7 0.00 0.03 0.03 63 1013.5
20260506223014 20 69 3.2 17.7 0.00 0.03 0.03 63 1013.6
20260506222508 20 23 4.8 12.9 0.00 0.03 0.03 63 1013.4
20260506222008 19 323 3.2 11.3 0.00 0.03 0.03 65 1013.4
20260506221521 19 53 4.8 11.3 0.00 0.03 0.03 65 1013.5
20260506221007 18 67 1.6 12.9 0.00 0.03 0.03 65 1013.5
20260506220509 18 23 3.2 12.9 0.00 0.03 0.03 64 1013.5
20260506220033 19 88 4.8 12.9 0.00 0.03 0.03 63 1013.4
20260506215507 19 58 3.2 11.3 0.00 0.03 0.03 64 1013.5
20260506215011 18 61 3.2 14.5 0.00 0.03 0.03 63 1013.4
20260506214527 18 37 3.2 14.5 0.00 0.03 0.03 65 1013.3
20260506214004 19 19 4.8 14.5 0.00 0.03 0.03 65 1013.5
20260506213504 18 17 1.6 14.5 0.00 0.03 0.03 64 1013.5
20260506213013 18 15 3.2 9.7 0.00 0.03 0.03 65 1013.4
20260506212505 18 250 3.2 11.3 0.00 0.03 0.03 66 1013.4
20260506212009 18 9 4.8 11.3 0.00 0.03 0.03 64 1013.5
20260506211526 18 63 3.2 8.0 0.00 0.03 0.03 66 1013.8
20260506211009 18 22 3.2 6.4 0.00 0.03 0.03 66 1013.8
20260506210508 18 19 1.6 12.9 0.00 0.03 0.03 66 1013.8
20260506210023 17 30 4.8 12.9 0.00 0.03 0.03 66 1013.8
20260506205507 17 330 1.6 9.7 0.00 0.03 0.03 67 1013.9
20260506205013 17 352 4.8 9.7 0.00 0.03 0.03 66 1013.9
20260506204528 17 81 0.0 8.0 0.00 0.03 0.03 67 1014.0
20260506204008 17 325 4.8 8.0 0.00 0.03 0.03 66 1013.9
20260506203515 17 5 3.2 8.0 0.00 0.03 0.03 67 1014.3
20260506203014 17 25 0.0 8.0 0.00 0.03 0.03 67 1014.2